COSMOS 2251 DEB

Satellite information

Favourite Embed

Satellite Type and Status

DEBRISIN ORBIT

Key statistics

Satellite COSMOS 2251 DEB at a glance.

Uptime

11869

Days in orbit

Revolutions

≈ 14.6

Per day

Orbit

LEO

Low Earth Orbit

Inclination

74.0

Latest

Satellite identification and parameters

Extended collection of information and parameters for COSMOS 2251 DEB.

Object identification

Identified? True

Debris? True

Object name: COSMOS 2251 DEB

International designator: 1993-036HA

Object number (NORAD): 34015

Object ID (CCSDS): 34015

Country: COMMONWEALTH OF INDEPENDENT STATES (CIS)

Current information (Y/N): Y

RCS size: SMALL

Orbital parameters

Period: 98.614 minutes

Inclination: 74.0236 deg

SMA: 7070.559 km

Apoapsis: 707.292 km

Periapsis: 677.557 km

RAAN: 160.9354 deg

Eccentricy: 0.0021027

Argument of periapsis: 257.9067 deg

Mean anomaly: 216.9697 deg

Mean motion: 14.60232788 rev/day

Mean motion (dot): 0.00010565 rev/day2

B* drag term: 0.0021864 1/REarth

Two-line elements (TLE)

Creation date: Dec. 12, 2025, 7:06 a.m.

Reference frame: TEME

Reference center: EARTH

Epoch: Dec. 11, 2025, 10:46 p.m. UTC

TLE line 0: 0 COSMOS 2251 DEB

TLE line 1: 1 34015U 93036HA 25345.94863241 .00010565 00000-0 21864-2 0 9990

TLE line 2: 2 34015 74.0236 160.9354 0021027 257.9067 216.9697 14.60232788885195

Live tracking on map

Real-time ground track for satellite COSMOS 2251 DEB.

In-orbit conjunctions

A list of the most updated potential collisions computed for object COSMOS 2251 DEB.

Target Orbit TCA Probability of collision Miss distance Type
FENGYUN 1C DEB SSO 2025-11-04 22:05:36 0.0001635066 271.0 (m) DEBRIS
KITSAT 3 SSO 2025-09-09 08:17:26 0.0003078957 632.0 (m) PAYLOAD

Associated space launch

Military communications satellite. Destroyed in a collision with Iridium 33.

COSMOS 2251 DEB was lifted into orbit during the mission ‘Kosmos-3M | Strela-2M 51’, on board a Kosmos-3M space rocket.

The launch took place on June 16, 1993, 4:17 a.m. from 132/1 (132L).

For more information about the launch, click the button.

Launch to space Kosmos-3M | Strela-2M 51
Kosmos-3M | Strela-2M 51

Agency: N/A

Status: Launch Successful

Launch date: June 16, 1993, 4:17 a.m. UTC

Rocket: Kosmos-3M

Launch pad: 132/1 (132L)

Location: Plesetsk Cosmodrome, Russian Federation

...

Latest news about this satellite

There are no fresh news available about this satellite. Check back as we update our databases every day.


Newsletter sign-up

Weekly statistics, charts and insights to help you stay on top of the space industry.